Regional Weather Roundup
Issued by NWS

Home | Current Version | Previous Version | Graphics & Text | Print | Product List | Glossary On
Versions: 1 2 3 4 5 6 7 8 9 10 11 12 13 14 15 16 17 18 19 20 21 22 23 24 25 26 27 28 29 30 31 32 33 34 35 36 37 38 39 40 41 42 43 44 45 46 47 48 49 50
000
ASUS45 KTFX 011404
RWRMT
MONTANA HOURLY WEATHER ROUNDUP
NATIONAL WEATHER SERVICE GREAT FALLS MT
804 AM MDT FRI AUG 1 2014

NOTE: "FAIR" INDICATES FEW OR NO CLOUDS BELOW 12000 FEET WITH NO
SIGNIFICANT WEATHER AND/OR OBSTRUCTIONS TO VISIBILITY.

* THESE STATIONS ARE NOT UNDER NWS QUALITY CONTROL. THEY DO NOT
   REPORT WEATHER SUCH AS PRECIPITATION OR FOG.

MTZ001>007-043-011500-
WEST OF THE DIVIDE
CITY           SKY/WX    TMP DP  RH WIND       PRES   REMARKS
KALISPELL      PTCLDY   N/A N/A N/A N/A       30.12R
MISSOULA       PTCLDY    63  45  52 CALM      30.17R
BUTTE          PTCLDY    54  39  57 CALM      30.29S
MULLAN PASS    PTSUNNY   68  30  24 CALM      30.28S
* ESSEX        N/A      N/A N/A N/A N/A        N/A
* LINCOLN      N/A       43  42  96 W1         N/A
* LOOKOUT PASS N/A       60  41  50 S2         N/A
* POLSON       N/A       62  44  52 N/A        N/A
* RONAN APT    PTSUNNY   55  48  77 N/A        N/A
* SEELEY LAKE  N/A       46  40  80 N4         N/A
* THOMP F APT  PTCLDY    57  41  55 N4G11      N/A
$$

MTZ008-052>055-011500-
SOUTHWEST MONTANA
CITY           SKY/WX    TMP DP  RH WIND       PRES   REMARKS
BOZEMAN        PTCLDY    61  46  58 S5        30.24R
DILLON         SUNNY     57  43  60 S10       30.26S
W YELLOWSTONE  SUNNY     46  41  83 CALM      30.37S
* THREE FORKS  PTCLDY    55  55 100 N/A        N/A
* BOULDER HILL N/A       60  37  43 S8         N/A
* MONIDA PASS  N/A       49  43  80 W3         N/A
* RAYNOLDS PAS N/A       45  17  32 E1         N/A
* WHITEHALL    N/A       52  40  64 W2G8       N/A
* WISE RIVER   N/A       48  41  77 NW2        N/A
$$

MTZ009>010-012-014-046-048-049-054-011500-
EAST SLOPES AND CENTRAL MONTANA
CITY           SKY/WX    TMP DP  RH WIND       PRES   REMARKS
CUT BANK       PTCLDY    64  55  73 N14       30.21R
GREAT FALLS    PTCLDY    63  45  52 SW6       30.18R
HELENA         PTSUNNY   63  43  48 CALM      30.22R
MALMSTROM AFB  PTCLDY    64  45  50 W7        30.20R
* CONRAD       PTCLDY    66  59  78 N/A        N/A
* DEARBORN     N/A       56  46  69 S1         N/A
* EAST GLACIER N/A       57  49  75 W1G6       N/A
* MONARCH      N/A       56  40  55 S4         N/A
* PENDROY      N/A       65  58  78 NW8        N/A
* ROGERS PASS  N/A       62  38  41 N/A        N/A
* SAINT MARY   N/A       48  47  96 SE2        N/A
* SWEET GRASS  N/A       64  57  78 NW12G17    N/A
$$

MTZ011-013-016-021-035-040-045-047-050-051-011500-
NORTH CENTRAL MONTANA
CITY           SKY/WX    TMP DP  RH WIND       PRES   REMARKS
HAVRE          SUNNY     63  48  58 SE6       30.13R
LEWISTOWN      PTCLDY    66  46  49 SE3       30.19S
* CHESTER      N/A       64  50  61 N3         N/A
* DENTON       N/A       63  48  58 N/A        N/A
* GEYSER       N/A       70  49  47 SW5        N/A
* JUDITH GAP   N/A       66  49  54 N4         N/A
* LOMA         N/A       62  46  56 SW3        N/A
$$

MTZ017>020-022>027-061-062-011500-
NORTHEAST MONTANA
CITY           SKY/WX    TMP DP  RH WIND       PRES   REMARKS
GLASGOW        SUNNY     72  57  59 E5        30.07R
GLENDIVE       PTSUNNY   66  52  61 NE9       30.06R
JORDAN         SUNNY     70  46  42 W3        30.08R
SIDNEY         CLOUDY    66  57  73 NE9       30.07R
WOLF POINT     PTCLDY    72  57  59 E9        30.05S
* BEAVER HILL  N/A       66  52  61 SE1        N/A
* CIRCLE       N/A       67  58  73 NE12       N/A
* LINDSAY DVD  N/A       61  53  75 NW6G13     N/A
* NAVAJO       N/A       63  57  81 S2         N/A
$$

MTZ028>042-056>058-011500-
SOUTHCENTRAL AND SOUTHEAST MONTANA
CITY           SKY/WX    TMP DP  RH WIND       PRES   REMARKS
BAKER          CLOUDY    64  48  56 S7        30.06R
BILLINGS       PTCLDY    66  46  49 SW10      30.16R
LIVINGSTON     SUNNY     59  43  56 NW8       30.24R
MILES CITY     SUNNY     70  45  41 W6        30.05R
* LAUREL APT   PTCLDY    63  45  52 SW5        N/A
* ROUNDUP APT  SUNNY     68  45  44 N/A        N/A
* ALZADA       N/A       76  45  33 NW1G8      N/A
* HYSHAM       N/A       70  42  36 W6         N/A
* LAME DEER    N/A       67  41  39 W11        N/A
* REED POINT   N/A       60  49  67 NW4        N/A
* ROSCOE HILL  N/A       69  40  35 S6         N/A
$$

REGIONAL REPORTS...DAKOTAS
CITY           SKY/WX    TMP DP  RH WIND       PRES   REMARKS
WILLISTON      PTCLDY    70  55  59 N13       30.08R
DICKINSON      SUNNY     64  57  78 E5        30.04S
CROSBY         N/A       64  64 100 W9        30.13R
TIOGA          SUNNY     64  64 100 E6        30.14R
WATFORD CITY   SUNNY     68  57  68 E9        30.04R
BISMARCK       SUNNY     70  57  64 E5        30.08R
GRAND FORKS    SUNNY     66  61  84 N6        30.06R
FARGO          SUNNY     66  61  84 N3        30.06S
BUFFALO SD     SUNNY     66  52  61 NE5       30.02S
RAPID CITY     SUNNY     72  55  55 CALM      30.11R
$$

REGIONAL REPORTS...WYOMING/IDAHO/WASHINGTON
CITY           SKY/WX    TMP DP  RH WIND       PRES   REMARKS
GILLETTE       PTCLDY    68  43  40 W12       30.16R
SHERIDAN       PTCLDY    68  46  45 CALM      30.15S
CODY           PTCLDY    66  41  40 SW5       30.25S
YELLOWSTONE LA SUNNY     46  41  83 CALM      30.45S
SALMON         CLOUDY    61  48  62 CALM      30.20S
MULLAN PASS    PTSUNNY   68  30  24 CALM      30.28S
SAND POINT     PTSUNNY   57  50  78 CALM      30.07R
SPOKANE        CLOUDY    68  45  44 E8        30.05R

$$



USA.gov is the U.S. government's official web portal to all federal, state and local government web resources and services.